Location: Scenic
(43.7797°N, 102.5549°W)
Time: 01:21:57

N. Korean satellite - Visible Passes

Search period start: 21 March 2018 00:00
Search period end: 31 March 2018 00:00
Orbit: 460 x 512 km, 97.2° (Epoch: 20 March)

Date Brightness Start Highest point End Pass type
(mag) Time Alt. Az. Time Alt. Az. Time Alt. Az.
23 Mar 10.6 20:00:39 10° W 20:00:50 10° W 20:01:02 10° W visible
24 Mar 9.8 19:34:05 10° SW 19:36:47 19° W 19:39:31 10° NW visible
27 Mar 10.5 19:58:06 10° WSW 19:58:56 11° W 19:59:48 10° WNW visible
